Location: Bussy-Saint-Georges
(48.8410°N, 2.7017°E)
Time: 21:56:01
(UTC+00:00)

Cosmos 405 Rocket - Pass Details

Date: 18 October 2021
Orbit: 488 x 551 km, 81.3° (Epoch: 07 December)

Event Time Altitude Azimuth Distance (km) Brightness Sun altitude
Rises 18:05:04 0° 350° (N) 2,674 6.5 -12.5°
Reaches altitude 10° 18:07:12 10° 352° (N) 1,790 5.5 -12.8°
Maximum altitude 18:11:09 72° 77° (ENE) 571 2.7 -13.5°
Drops below altitude 10° 18:15:08 10° 163° (SSE) 1,808 5.3 -14.1°
Sets 18:17:18 0° 165° (SSE) 2,702 6.2 -14.5°
